SIA140 YPDN-YSSY

Flight info

Callsign SIA140
Flight time N/A
Altitude 37000
Route DN Y25 DOSAM J30 TNK T25 GUGAB G222 VAGPO Y71 VELGI Y105 TARAL Y59 RIVET
Aircraft B77W/H-SDE1E2E3FGHIJ2J3J4J5M1RWXY/LB1D1

Departure

Time 2026-05-09 02:20
Airport Darwin International Airport / RAAF Darwin (YPDN)

Arrival

Time N/A
Airport Sydney Kingsford Smith International Airport (YSSY)
Time Latitude Longitude Altitude Speed Heading
2026-05-09 02:12 -12.40970 130.87184 106 ft 1 kts 288°
2026-05-09 02:12 -12.40955 130.87140 105 ft 9 kts 287°
2026-05-09 02:12 -12.40973 130.87087 108 ft 9 kts 216°
2026-05-09 02:12 -12.41030 130.87068 107 ft 9 kts 184°
2026-05-09 02:13 -12.41077 130.87036 108 ft 9 kts 240°
2026-05-09 02:13 -12.41089 130.86976 108 ft 9 kts 281°
2026-05-09 02:13 -12.41068 130.86914 108 ft 11 kts 289°
2026-05-09 02:13 -12.41028 130.86798 110 ft 24 kts 289°
2026-05-09 02:14 -12.41018 130.86611 112 ft 23 kts 266°
2026-05-09 02:14 -12.40946 130.86527 110 ft 16 kts 10°
2026-05-09 02:14 -12.40897 130.86616 109 ft 16 kts 103°
2026-05-09 02:14 -12.40976 130.86693 109 ft 16 kts 134°
2026-05-09 02:15 -12.41011 130.86759 111 ft 0 kts 111°
2026-05-09 02:19 -12.41070 130.86924 108 ft 71 kts 109°
2026-05-09 02:19 -12.41359 130.87786 108 ft 183 kts 108°
2026-05-09 02:20 -12.41789 130.89252 790 ft 217 kts 100°
2026-05-09 02:20 -12.41633 130.90757 2493 ft 225 kts 74°
2026-05-09 02:20 -12.41134 130.92329 3390 ft 231 kts 81°
2026-05-09 02:20 -12.41391 130.93919 4201 ft 238 kts 118°
2026-05-09 02:21 -12.42639 130.95062 5055 ft 252 kts 153°
2026-05-09 02:21 -12.44384 130.95554 5721 ft 268 kts 164°
2026-05-09 02:21 -12.46236 130.95969 6604 ft 275 kts 163°
2026-05-09 02:21 -12.48114 130.96460 7521 ft 280 kts 161°
2026-05-09 02:22 -12.49998 130.97036 8434 ft 285 kts 160°
2026-05-09 02:22 -12.51899 130.97685 9293 ft 291 kts 158°
2026-05-09 02:22 -12.53825 130.98406 10106 ft 298 kts 157°
2026-05-09 02:22 -12.55809 130.99197 10652 ft 317 kts 156°
2026-05-09 02:23 -12.57943 131.00088 10883 ft 346 kts 156°
2026-05-09 02:23 -12.60233 131.01073 11091 ft 374 kts 156°
2026-05-09 02:23 -12.62681 131.02147 11605 ft 389 kts 156°
2026-05-09 02:23 -12.65195 131.03268 12340 ft 398 kts 156°
2026-05-09 02:24 -12.67751 131.04422 13143 ft 405 kts 156°
2026-05-09 02:24 -12.70351 131.05602 13959 ft 410 kts 156°
2026-05-09 02:24 -12.72982 131.06803 14747 ft 416 kts 157°
2026-05-09 02:24 -12.75643 131.08022 15500 ft 422 kts 157°
2026-05-09 02:25 -12.78344 131.09260 16235 ft 427 kts 158°
2026-05-09 02:25 -12.81081 131.10515 16925 ft 433 kts 158°
2026-05-09 02:25 -12.83854 131.11787 17625 ft 439 kts 158°
2026-05-09 02:25 -12.86658 131.13072 18299 ft 445 kts 159°
2026-05-09 02:26 -12.89466 131.14360 18954 ft 450 kts 159°
2026-05-09 02:26 -12.92339 131.15678 19590 ft 454 kts 159°
2026-05-09 02:26 -12.95244 131.17011 20169 ft 460 kts 159°
2026-05-09 02:26 -12.98190 131.18363 20767 ft 465 kts 159°
2026-05-09 02:27 -13.01161 131.19727 21362 ft 469 kts 159°
2026-05-09 02:27 -13.04156 131.21102 21913 ft 473 kts 159°
2026-05-09 02:27 -13.07181 131.22491 22433 ft 478 kts 159°
2026-05-09 02:27 -13.10230 131.23893 22928 ft 483 kts 159°
2026-05-09 02:28 -13.13273 131.25294 23404 ft 487 kts 159°
2026-05-09 02:28 -13.16373 131.26719 23851 ft 491 kts 159°
2026-05-09 02:28 -13.19510 131.28162 24284 ft 495 kts 159°
2026-05-09 02:28 -13.22671 131.29615 24770 ft 498 kts 159°
2026-05-09 02:29 -13.25846 131.31074 25207 ft 501 kts 159°
2026-05-09 02:29 -13.29053 131.32550 25608 ft 505 kts 159°
2026-05-09 02:29 -13.32273 131.34033 26019 ft 509 kts 159°
2026-05-09 02:29 -13.35510 131.35526 26449 ft 511 kts 159°
2026-05-09 02:30 -13.38727 131.37009 26871 ft 514 kts 160°
2026-05-09 02:30 -13.42002 131.38517 27250 ft 517 kts 160°
2026-05-09 02:30 -13.45291 131.40033 27615 ft 520 kts 160°
2026-05-09 02:30 -13.48600 131.41559 27962 ft 523 kts 160°
2026-05-09 02:31 -13.51934 131.43097 28317 ft 525 kts 160°
2026-05-09 02:31 -13.55273 131.44639 28659 ft 528 kts 160°
2026-05-09 02:31 -13.58639 131.46195 28980 ft 530 kts 160°
2026-05-09 02:31 -13.62011 131.47752 29262 ft 533 kts 160°
2026-05-09 02:32 -13.65401 131.49317 29553 ft 535 kts 160°
2026-05-09 02:32 -13.68806 131.50890 29866 ft 537 kts 160°
2026-05-09 02:32 -13.72212 131.52466 30282 ft 536 kts 161°
2026-05-09 02:32 -13.75569 131.54019 30702 ft 535 kts 161°
2026-05-09 02:33 -13.78966 131.55592 31074 ft 535 kts 161°
2026-05-09 02:33 -13.82359 131.57163 31404 ft 536 kts 161°
2026-05-09 02:33 -13.85765 131.58737 31771 ft 536 kts 161°
2026-05-09 02:33 -13.89167 131.60311 32140 ft 536 kts 161°
2026-05-09 02:34 -13.92581 131.61892 32447 ft 537 kts 161°
2026-05-09 02:34 -13.95995 131.63474 32783 ft 538 kts 161°
2026-05-09 02:34 -13.99407 131.65054 33147 ft 538 kts 161°
2026-05-09 02:34 -14.02816 131.66636 33529 ft 537 kts 161°
2026-05-09 02:35 -14.06225 131.68218 33845 ft 538 kts 161°
2026-05-09 02:35 -14.09635 131.69800 34149 ft 538 kts 161°
2026-05-09 02:35 -14.13063 131.71388 34468 ft 539 kts 161°
2026-05-09 02:35 -14.16440 131.72955 34808 ft 538 kts 161°
2026-05-09 02:36 -14.19850 131.74540 35194 ft 537 kts 161°
2026-05-09 02:36 -14.23260 131.76125 35565 ft 536 kts 161°
2026-05-09 02:36 -14.26653 131.77701 35888 ft 535 kts 161°
2026-05-09 02:36 -14.30054 131.79281 36169 ft 536 kts 160°
2026-05-09 02:37 -14.33452 131.80861 36451 ft 536 kts 160°
2026-05-09 02:37 -14.36852 131.82441 36748 ft 535 kts 160°
2026-05-09 02:37 -14.40242 131.84018 36975 ft 536 kts 160°
2026-05-09 02:38 -14.47047 131.87187 37007 ft 530 kts 160°
2026-05-09 02:38 -14.53714 131.90299 37011 ft 522 kts 161°
2026-05-09 02:39 -14.60302 131.93366 37026 ft 523 kts 161°
2026-05-09 02:39 -14.66959 131.96466 37019 ft 525 kts 161°
2026-05-09 02:40 -14.73636 131.99580 37018 ft 527 kts 161°
2026-05-09 02:40 -14.80333 132.02708 37024 ft 528 kts 161°
2026-05-09 02:41 -14.87041 132.05843 37020 ft 530 kts 161°
2026-05-09 02:41 -14.93772 132.08991 37017 ft 530 kts 161°
2026-05-09 02:42 -15.00455 132.12118 37015 ft 531 kts 161°
2026-05-09 02:42 -15.07194 132.15276 37019 ft 531 kts 161°
2026-05-09 02:43 -15.13929 132.18431 37020 ft 531 kts 161°
2026-05-09 02:43 -15.20670 132.21594 37017 ft 532 kts 161°
2026-05-09 02:44 -15.27417 132.24759 37020 ft 532 kts 161°
2026-05-09 02:44 -15.34171 132.27931 37016 ft 532 kts 161°
2026-05-09 02:45 -15.40922 132.31104 37028 ft 532 kts 161°
2026-05-09 02:45 -15.47647 132.34266 37027 ft 533 kts 161°
2026-05-09 02:46 -15.54411 132.37449 37028 ft 533 kts 161°
2026-05-09 02:46 -15.61181 132.40639 37028 ft 534 kts 161°
2026-05-09 02:47 -15.67900 132.43805 37031 ft 534 kts 161°
2026-05-09 02:47 -15.74664 132.46998 37027 ft 534 kts 161°
2026-05-09 02:48 -15.81441 132.50194 37026 ft 534 kts 161°
2026-05-09 02:48 -15.88209 132.53390 37029 ft 534 kts 161°
2026-05-09 02:49 -15.94943 132.56575 37027 ft 533 kts 161°
2026-05-09 02:49 -16.01711 132.59777 37026 ft 534 kts 161°
2026-05-09 02:50 -16.08473 132.62979 37029 ft 534 kts 161°
2026-05-09 02:50 -16.15211 132.66168 37031 ft 535 kts 161°
2026-05-09 02:51 -16.22006 132.69391 37028 ft 536 kts 161°
2026-05-09 02:51 -16.28795 132.72612 37027 ft 536 kts 161°
2026-05-09 02:52 -16.35599 132.75843 37026 ft 537 kts 161°
2026-05-09 02:52 -16.42360 132.79057 37026 ft 537 kts 161°
2026-05-09 02:53 -16.49161 132.82289 37030 ft 537 kts 161°
2026-05-09 02:53 -16.55960 132.85524 37026 ft 537 kts 161°
2026-05-09 02:54 -16.62718 132.88744 37027 ft 537 kts 161°
2026-05-09 02:54 -16.69513 132.91983 37032 ft 537 kts 161°
2026-05-09 02:55 -16.76311 132.95227 37032 ft 537 kts 161°
2026-05-09 02:55 -16.83105 132.98472 37038 ft 537 kts 161°
2026-05-09 02:56 -16.89907 133.01721 37038 ft 537 kts 161°
2026-05-09 02:56 -16.96675 133.04957 37038 ft 537 kts 161°
2026-05-09 02:57 -17.02380 133.07685 37039 ft 538 kts 161°
2026-05-09 02:57 -17.09185 133.10945 37033 ft 538 kts 161°
2026-05-09 02:58 -17.15997 133.14208 37037 ft 539 kts 161°
2026-05-09 02:58 -17.22807 133.17477 37048 ft 539 kts 161°
2026-05-09 02:59 -17.29579 133.20728 37049 ft 539 kts 162°
2026-05-09 02:59 -17.36406 133.24008 37051 ft 540 kts 162°
2026-05-09 03:00 -17.43238 133.27295 37041 ft 540 kts 162°
2026-05-09 03:00 -17.50062 133.30582 37050 ft 540 kts 162°
2026-05-09 03:01 -17.56890 133.33869 37053 ft 540 kts 161°
2026-05-09 03:01 -17.63725 133.37159 37058 ft 540 kts 161°
2026-05-09 03:02 -17.70518 133.40437 37053 ft 541 kts 161°
2026-05-09 03:02 -17.77358 133.43743 37057 ft 541 kts 161°
2026-05-09 03:03 -17.84222 133.47060 37058 ft 542 kts 161°
2026-05-09 03:03 -17.91074 133.50373 37065 ft 542 kts 161°
2026-05-09 03:04 -17.97903 133.53679 37066 ft 542 kts 161°
2026-05-09 03:04 -18.04762 133.57003 37066 ft 542 kts 162°
2026-05-09 03:05 -18.11614 133.60325 37076 ft 542 kts 162°
2026-05-09 03:05 -18.18474 133.63653 37076 ft 543 kts 162°